N5DUP Weather Reports


time (UTC)temp
C
wind
direction
speed
KPH
gust
KPH
rain 1hr
cm
rain 24hr
cm
rain mn
cm
humidity
%
barometer
mb
20260906221824 37 172 3.2 12.9 0.00 0.00 0.00 29 1011.1
20260906220321 37 188 3.2 11.3 0.00 0.00 0.00 27 1011.1
20260906214855 37 76 3.2 14.5 0.00 0.00 0.00 27 1011.2
20260906213327 37 70 4.8 12.9 0.00 0.00 0.00 28 1011.4
20260906211818 35 42 3.2 12.9 0.00 0.00 0.00 30 1011.7
20260906210330 35 109 9.7 19.3 0.00 0.00 0.00 31 1011.9
20260906204823 36 144 1.6 8.0 0.00 0.00 0.00 30 1012.1
20260906203317 36 78 8.0 17.7 0.00 0.00 0.00 30 1012.3
20260906201826 36 83 4.8 11.3 0.00 0.00 0.00 29 1012.3
20260906200318 35 201 3.2 12.9 0.00 0.00 0.00 32 1012.5
20260906194829 34 77 4.8 16.1 0.00 0.00 0.00 34 1012.8
20260906193342 34 78 1.6 16.1 0.00 0.00 0.00 34 1013.0
20260906191816 34 58 11.3 19.3 0.00 0.00 0.00 34 1013.1
20260906190330 35 302 4.8 11.3 0.00 0.00 0.00 33 1013.2
20260906184844 35 57 8.0 17.7 0.00 0.00 0.00 33 1013.5
20260906183316 35 161 1.6 16.1 0.00 0.00 0.00 33 1013.7
20260906181829 35 195 4.8 12.9 0.00 0.00 0.00 33 1013.8
20260906180340 35 90 4.8 11.3 0.00 0.00 0.00 34 1014.2
20260906174826 33 76 9.7 19.3 0.00 0.00 0.00 35 1014.5
20260906173318 32 88 1.6 16.1 0.00 0.00 0.00 38 1014.8
20260906171831 33 86 4.8 14.5 0.00 0.00 0.00 38 1014.9
20260906170322 33 214 1.6 9.7 0.00 0.00 0.00 38 1015.0
20260906164815 32 336 1.6 8.0 0.00 0.00 0.00 40 1015.2
20260906163329 32 44 3.2 14.5 0.00 0.00 0.00 39 1015.2
20260906161820 32 44 1.6 8.0 0.00 0.00 0.00 40 1015.2
20260906160317 32 335 1.6 6.4 0.00 0.00 0.00 41 1015.2
20260906154844 31 18 1.6 6.4 0.00 0.00 0.00 45 1015.2
20260906153316 31 351 1.6 8.0 0.00 0.00 0.00 45 1015.1
20260906151824 30 279 3.2 6.4 0.00 0.00 0.00 48 1015.0
20260906150329 30 234 1.6 8.0 0.00 0.00 0.00 51 1014.9
20260906144842 29 234 1.6 8.0 0.00 0.00 0.00 54 1014.9
20260906143330 28 215 4.8 6.4 0.00 0.00 0.00 56 1015.0
20260906141827 27 186 3.2 4.8 0.00 0.00 0.00 57 1015.1
20260906140319 27 182 1.6 6.4 0.00 0.00 0.00 58 1015.0
20260906134854 26 184 3.2 8.0 0.00 0.00 0.00 59 1015.0
20260906133324 25 180 3.2 8.0 0.00 0.00 0.00 61 1014.8
20260906131817 25 179 3.2 8.0 0.00 0.00 0.00 61 1014.7
20260906130350 25 188 0.0 3.2 0.00 0.00 0.00 64 1014.6
20260906124821 24 181 1.6 8.0 0.00 0.00 0.00 63 1014.4
20260906123331 24 155 3.2 9.7 0.00 0.00 0.00 63 1014.2
20260906121825 24 182 4.8 11.3 0.00 0.00 0.00 63 1013.9
20260906120319 24 181 6.4 11.3 0.00 0.00 0.00 63 1013.7
20260906114833 24 169 6.4 12.9 0.00 0.00 0.00 63 1013.6
20260906113322 24 183 4.8 11.3 0.00 0.00 0.00 63 1013.5
20260906111816 24 180 4.8 8.0 0.00 0.00 0.00 63 1013.5
20260906110328 24 173 3.2 6.4 0.00 0.00 0.00 63 1013.3
20260906104841 24 182 3.2 6.4 0.00 0.00 0.00 63 1013.3
20260906103325 24 178 4.8 8.0 0.00 0.00 0.00 63 1013.2
20260906101815 24 178 3.2 4.8 0.00 0.00 0.00 62 1013.1
20260906100333 24 173 3.2 8.0 0.00 0.00 0.00 62 1013.0
20260906094822 24 182 3.2 4.8 0.00 0.00 0.00 61 1013.0
20260906093316 25 179 3.2 8.0 0.00 0.00 0.00 60 1013.1
20260906091826 25 178 3.2 9.7 0.00 0.00 0.00 59 1012.9
20260906090320 25 176 4.8 11.3 0.00 0.00 0.00 58 1012.8
20260906084815 25 176 3.2 8.0 0.00 0.00 0.00 58 1012.8
20260906083349 25 178 4.8 9.7 0.00 0.00 0.00 57 1012.9
20260906081819 25 175 6.4 14.5 0.00 0.00 0.00 56 1012.6
20260906080333 26 186 6.4 16.1 0.00 0.00 0.00 54 1012.6
20260906074843 26 180 6.4 11.3 0.00 0.00 0.00 53 1012.8
20260906073314 26 188 9.7 19.3 0.00 0.00 0.00 52 1013.1
20260906071829 26 180 6.4 12.9 0.00 0.00 0.00 51 1013.2
20260906070324 26 184 4.8 12.9 0.00 0.00 0.00 50 1013.2
20260906064820 26 173 8.0 11.3 0.00 0.00 0.00 49 1013.4
20260906063331 27 180 4.8 11.3 0.00 0.00 0.00 49 1013.5
20260906061823 27 173 4.8 8.0 0.00 0.00 0.00 48 1013.5
20260906060333 27 180 3.2 11.3 0.00 0.00 0.00 47 1013.7
20260906054824 27 180 3.2 8.0 0.00 0.00 0.00 46 1013.7
20260906053332 27 173 3.2 8.0 0.00 0.00 0.00 46 1013.6
20260906051826 28 167 3.2 8.0 0.00 0.00 0.00 45 1013.5
20260906050320 28 177 3.2 8.0 0.00 0.00 0.00 44 1013.5
20260906044818 28 180 3.2 9.7 0.00 0.00 0.00 43 1013.5
20260906043333 29 167 3.2 9.7 0.00 0.00 0.00 41 1013.5
20260906041830 30 181 4.8 12.9 0.00 0.00 0.00 40 1013.5
20260906040340 30 183 4.8 11.3 0.00 0.00 0.00 40 1013.4
20260906034831 30 200 3.2 11.3 0.00 0.00 0.00 40 1013.4
20260906033323 30 191 4.8 12.9 0.00 0.00 0.00 39 1013.2
20260906031840 30 144 3.2 9.7 0.00 0.00 0.00 39 1012.9
20260906030345 31 192 3.2 6.4 0.00 0.00 0.00 38 1012.8
20260906024839 31 146 1.6 8.0 0.00 0.00 0.00 37 1012.6
20260906023324 31 125 1.6 4.8 0.00 0.00 0.00 36 1012.3
20260906021834 31 196 1.6 9.7 0.00 0.00 0.00 35 1012.2
20260906020326 32 214 1.6 6.4 0.00 0.00 0.00 34 1012.0
20260906014822 32 258 3.2 11.3 0.00 0.00 0.00 34 1011.8
20260906013353 32 134 1.6 8.0 0.00 0.00 0.00 33 1011.6
20260906011845 32 175 3.2 6.4 0.00 0.00 0.00 33 1011.2
20260906010318 33 167 1.6 8.0 0.00 0.00 0.00 32 1011.1
20260906004830 33 98 1.6 8.0 0.00 0.00 0.00 32 1010.9
20260906003321 34 188 3.2 14.5 0.00 0.00 0.00 31 1010.9
20260906001817 35 130 3.2 9.7 0.00 0.00 0.00 30 1010.8
20260906000355 35 84 9.7 19.3 0.00 0.00 0.00 30 1010.8
20260905234845 35 169 4.8 17.7 0.00 0.00 0.00 30 1010.7
20260905233352 35 68 9.7 22.5 0.00 0.00 0.00 30 1010.6
20260905231847 35 87 9.7 20.9 0.00 0.00 0.00 30 1010.4
20260905230318 35 73 4.8 14.5 0.00 0.00 0.00 30 1010.4
20260905224830 35 87 6.4 17.7 0.00 0.00 0.00 30 1010.4
20260905223341 36 230 9.7 19.3 0.00 0.00 0.00 30 1010.5